Home > Weather > Lansing > Past weeks

Flag for USA Weather for the Past 2 Weeks in Lansing, Michigan, USA

Now
56 °F

Passing clouds.


Feels Like: 54 °F
Forecast: 48 / 54 °F
Wind: 7 mph from Southwest

Location: Capital City Airport

Current Time: May 3, 2016 at 10:22:46 PM

Latest Report: May 3, 2016 at 9:53 PM


Visibility: 10 mi

Pressure: 29.76 "Hg

Humidity: 46%

Dew Point: 35 °F

Location of LansingLocation

Historic Weather in Lansing — Graph

°F

Lansing Temperature Yesterday

Maximum temperature yesterday: 55 °F (at 5:53 PM)
Minimum temperature yesterday: 42 °F (at 2:53 AM)
Average temperature yesterday: 47 °F

High & Low Weather Summary for the Past Weeks

 TemperatureHumidityPressure
High77 °F (Apr 25, 2:53 PM)97% (Apr 22, 1:53 AM)30.36 "Hg (Apr 22, 1:53 AM)
Low33 °F (Apr 27, 6:53 AM)24% (Apr 20, 6:53 PM)29.64 "Hg (Apr 26, 3:04 AM)
Average50 °F68%30.02 "Hg
* Reported Apr 18 8:53 PM — May 3 8:53 PM, Lansing, Weather by CustomWeather, © 2016

Note: Actual official high and low records may vary slightly from our data, if they occured in-between our weather recording intervals... More about our weather records

Advertising

Lansing Weather History for the Previous 24 Hours

Scroll right to see more
 ConditionsComfort  
Time TempWeatherWind HumidityBarometerVisibility
8:53 PM
Tue, May 3
59 °FSunny.7 mph38%29.76 "Hg10 mi
7:53 PM61 °FSunny.10 mph34%29.77 "Hg10 mi
6:53 PM63 °FPartly sunny.18 mph33%29.78 "Hg10 mi
5:53 PM63 °FOvercast.13 mph34%29.80 "Hg10 mi
4:53 PM65 °FPassing clouds.6 mph33%29.80 "Hg10 mi
3:53 PM65 °FOvercast.12 mph34%29.82 "Hg10 mi
2:53 PM65 °FScattered clouds.10 mph36%29.84 "Hg10 mi
1:53 PM63 °FScattered clouds.14 mph38%29.87 "Hg10 mi
12:53 PM61 °FSunny.9 mph39%29.89 "Hg10 mi
11:53 AM60 °FSunny.6 mph44%29.92 "Hg10 mi
10:53 AM58 °FSunny.6 mph47%29.93 "Hg10 mi
9:53 AM55 °FSunny.5 mph55%29.94 "Hg10 mi
8:53 AM52 °FSunny.3 mph72%29.96 "Hg10 mi
7:53 AM43 °FSunny.No wind93%29.96 "Hg7 mi
6:53 AM38 °FFog.No wind97%29.96 "Hg6 mi
5:53 AM39 °FFog.No wind93%29.96 "Hg2 mi
5:00 AM41 °FFog.No wind89%29.96 "Hg2 mi
3:53 AM43 °FClear.No wind89%29.97 "Hg10 mi
2:53 AM45 °FOvercast.6 mph86%29.98 "Hg10 mi
1:53 AM45 °FOvercast.5 mph90%29.98 "Hg10 mi
12:53 AM45 °FOvercast.No wind90%29.99 "Hg10 mi
11:53 PM
Mon, May 2
47 °FOvercast.No wind83%29.99 "Hg10 mi
10:53 PM49 °FPassing clouds.3 mph77%30.00 "Hg10 mi
Weather by CustomWeather, © 2016

See weather overviewHow to use our weather pages